Flag Weather past 2 weeks in Waterbury, Connecticut, U.S.A.

Now
34 °F

Light rain. Fog.


Feels Like: N/A
Forecast: 26 / 35 °F
Wind: N/A

Location: Oxford

Current Time: Nov 26, 2014 at 9:22:13 PM

Latest Report: Nov 26, 2014 at 8:52 PM


Visibility: 2 mi

Pressure: 29.75 "Hg

Humidity: 75%

Dew point: 27 °F

Location of WaterburyLocation

Historic Weather in Waterbury — Graph

°F

Waterbury temperature yesterday

Maximum temperature yesterday: 64 °F (at 12:55 AM)
Minimum temperature yesterday: 43 °F (at 7:52 PM)
Average temperature yesterday: 54 °F

Past Weeks' High & Low Weather Summary

 TemperatureHumidityPressure
High64 °F (Nov 25, 12:55 AM)100% (Nov 26, 11:45 AM)30.44 "Hg (Nov 26, 11:45 AM)
Low18 °F (Nov 19, 6:55 AM)31% (Nov 18, 1:50 PM)29.48 "Hg (Nov 17, 7:50 PM)
Average37 °F59%30.03 "Hg
* Reported Nov 11 6:50 PM — Nov 26 6:52 PM, Waterbury, Weather by CustomWeather, © 2014

Note: Actual official high and low records may vary slightly from our data, if they occured in-between our weather recording intervals... More about our weather records

Advertising

Waterbury weather history for previous 24 hours

 ConditionsComfort  
Time TempWeatherWind HumidityBarometerVisibility
6:52 PM
Nov 26
34 °FSnow flurries. Fog.22 mph75%29.77 "Hg3 mi
4:52 PM34 °FLight mixture of precip. Fog.15 mph75%29.87 "Hg3 mi
1:45 PM34 °FChilly.12 mph100%N/A1 mi
12:45 PM34 °FChilly.14 mph100%N/A1 mi
11:45 AM34 °FChilly.12 mph100%N/A1 mi
10:50 AM34 °FLight snow. Fog.7 mph75%30.12 "Hg1 mi
9:50 AM34 °FLight snow. Fog.7 mph75%30.15 "Hg1 mi
8:50 AM34 °FLight snow. Fog.12 mph75%30.12 "Hg1 mi
7:45 AM37 °FLight snow. Fog.7 mph65%30.18 "Hg2 mi
6:50 AM39 °FMostly cloudy.7 mph61%30.14 "Hg7 mi
5:35 AM39 °FOvercast.14 mph61%30.16 "Hg10 mi
5:15 AM39 °FPartly cloudy.15 mph61%30.16 "Hg10 mi
4:55 AM39 °FOvercast.12 mph61%30.17 "Hg10 mi
4:35 AM39 °FOvercast.10 mph61%30.17 "Hg10 mi
3:55 AM41 °FOvercast.10 mph57%30.20 "Hg10 mi
3:35 AM41 °FOvercast.10 mph57%30.20 "Hg10 mi
3:15 AM41 °FPassing clouds.7 mph57%30.21 "Hg10 mi
2:55 AM41 °FClear.6 mph57%30.20 "Hg10 mi
2:35 AM43 °FClear.6 mph53%30.19 "Hg10 mi
1:55 AM43 °FClear.6 mph53%30.16 "Hg10 mi
1:35 AM41 °FClear.No wind57%30.16 "Hg10 mi
1:15 AM43 °FClear.No wind53%30.15 "Hg10 mi
12:55 AM43 °FClear.No wind53%30.15 "Hg10 mi
12:35 AM43 °FClear.No wind53%30.14 "Hg10 mi
12:15 AM41 °FClear.No wind57%30.14 "Hg10 mi
11:55 PM
Nov 25
45 °FClear.No wind49%30.14 "Hg10 mi
11:35 PM45 °FClear.No wind49%30.14 "Hg10 mi
11:15 PM45 °FClear.3 mph49%30.15 "Hg10 mi
10:35 PM43 °FClear.5 mph53%30.12 "Hg10 mi
10:15 PM43 °FClear.3 mph53%30.11 "Hg10 mi
9:55 PM43 °FClear.5 mph53%30.11 "Hg10 mi
9:35 PM43 °FClear.3 mph53%30.11 "Hg10 mi
9:15 PM43 °FClear.3 mph53%30.11 "Hg10 mi
Weather by CustomWeather, © 2014

See weather overviewHow to use our weather pages